Content
SEND FEEDBACK

Daily
Averages
Monthly
Summary
France

LE HAVRE, FRANCE


Home > Europe > France
Elevation: 103 meters     Latitude: 49 31N     Longitude: 000 04E

WEATHER
 
SELECT A DAY
Number of Records: 187,945;   Date Range: 3/4/97 - 12/24/14
 
SHARE

PRINT THIS DATA

[ ← Previous Day ]
WEATHER ALMANAC - 28 MARCH, 2013
[ Next Day → ]
[ °F ]   °C
Weather ElementAverageHighLow
Temperature2.7 °C5 °C (1:00 pm)1 °C (6:30 am)
Dewpoint-1.4 °C1 °C (3:00 pm)-3 °C (6:30 pm)
Humidity74.8 %93 % (6:30 am)65 % (2:30 pm)
Barometer1009.8 hPa1012.2 hPa (7:30 pm)1008.1 hPa (2:00 am)
Wind Speed13.7 km/h25.9 km/h (5:30 pm)
Weather ElementAverage
Visibility7.1 km
Wind DirectionESE (119.3 °)

Weather ElementTotal
Precipitation---
Heating Degree Days15.3 (Base 18.3)
Averaged from 46 records on 28 March, 2013
WEATHER CONDITIONS BREAKOUT
WIND DIRECTION BREAKOUT
WEATHER BY HOUR - 28 MARCH, 2013
[ °F ]   °C
Local TimeTemperatureDewpointHumidityBarometerVisibilityWind DirectionWind SpeedGust SpeedPrecipitationEventsConditions
12:30 AM3 °C-2 °C70 %1009.1 hPa6 kmNE (50°)9.3 km/h
1:00 AM3 °C-2 °C70 %1009.1 hPa6.9 kmNE (50°)9.3 km/hOvercast
1:30 AM3 °C-2 °C70 %1009.1 hPa6 kmNE (40°)9.3 km/h
2:00 AM2 °C-2 °C75 %1008.1 hPa6.9 kmNE (40°)9.3 km/h
2:30 AM2 °C-2 °C75 %1008.1 hPa6 kmNNE (30°)9.3 km/h
3:00 AM2 °C-1 °C81 %1008.1 hPa6 kmNNE (20°)9.3 km/h
3:30 AM2 °C-1 °C81 %1008.1 hPa6 kmNorth (360°)7.4 km/h
4:00 AM2 °C-1 °C81 %1008.1 hPa5 kmNorth (360°)7.4 km/hMist
4:30 AM2 °C-2 °C75 %1008.1 hPa6 kmNNE (20°)5.6 km/h
5:00 AM2 °C-2 °C75 %1008.1 hPa5 kmNNE (30°)5.6 km/hOvercast
5:30 AM2 °C-2 °C75 %1008.1 hPa6 kmVariable5.6 km/hOvercast
6:00 AM2 °C0 °C87 %1008.1 hPa4.5 kmNW (310°)14.8 km/hRainLight Rain
6:30 AM1 °C0 °C93 %1008.1 hPaWest (270°)11.1 km/hRainLight Rain
7:00 AM1 °C-1 °C87 %1008.1 hPaVariable5.6 km/hOvercast
7:30 AM2 °C-2 °C75 %1008.1 hPa6 kmNorth (10°)9.3 km/hOvercast
8:00 AM2 °C-2 °C75 %1008.1 hPa6 kmNNE (20°)7.4 km/hOvercast
8:30 AM3 °C-2 °C70 %1009.1 hPa6.9 kmNorth (10°)9.3 km/hOvercast
9:00 AM3 °C0 °C81 %1009.1 hPaNNE (20°)14.8 km/hMostly Cloudy
9:30 AM2 °C0 °C87 %1009.1 hPaNE (40°)7.4 km/hOvercast
10:00 AM2 °C0 °C87 %1009.1 hPa2.6 kmNE (40°)13 km/hMostly Cloudy
10:30 AM2 °C0 °C87 %1009.1 hPaNorth (10°)5.6 km/hMostly Cloudy
11:00 AM4 °C-1 °C70 %1009.1 hPa5 kmNorth (10°)11.1 km/hMostly Cloudy
11:30 AM4 °C0 °C75 %1009.1 hPa5 kmNorth (350°)13 km/hMostly Cloudy
12:00 PM4 °C0 °C75 %1009.1 hPa5 kmNorth (350°)14.8 km/hMostly Cloudy
1:00 PM5 °C0 °C70 %1009.1 hPa8 kmNorth (350°)18.5 km/h
1:30 PM5 °C0 °C70 %1009.1 hPa6.9 kmNorth (350°)22.2 km/h
2:00 PM5 °C0 °C70 %1009.1 hPa6.9 kmNorth (350°)20.4 km/hScattered Clouds
2:30 PM5 °C-1 °C65 %1010.2 hPa6.9 kmNorth (350°)22.2 km/hPartly Cloudy
3:00 PM4 °C1 °C81 %1010.2 hPa5 kmNorth (350°)20.4 km/hMostly Cloudy
3:30 PM5 °C0 °C70 %1010.2 hPa6.9 kmNorth (360°)18.5 km/h
4:00 PM5 °C0 °C70 %1010.2 hPa6.9 kmNorth (350°)24.1 km/hPartly Cloudy
4:30 PM3 °C0 °C81 %1010.2 hPa5 kmNE (40°)20.4 km/hMostly Cloudy
5:00 PM4 °C-1 °C70 %1010.2 hPa6 kmNNE (30°)24.1 km/hMostly Cloudy
5:30 PM3 °C-2 °C70 %1010.2 hPa8 kmNNE (20°)25.9 km/hMostly Cloudy
6:00 PM3 °C-2 °C70 %1010.2 hPa10 kmNNE (30°)24.1 km/hPartly Cloudy
6:30 PM3 °C-3 °C65 %1011.2 hPa10 kmNNE (30°)24.1 km/hPartly Cloudy
7:00 PM2 °C-3 °C70 %1011.2 hPa10 kmNE (40°)20.4 km/hPartly Cloudy
7:30 PM2 °C-3 °C70 %1012.2 hPa10 kmNE (40°)16.7 km/h
8:00 PM1 °C-3 °C75 %1012.2 hPa10 kmNE (40°)14.8 km/h
8:30 PM1 °C-3 °C75 %1012.2 hPa10 kmNE (50°)13 km/hMostly Cloudy
9:00 PM2 °C-3 °C70 %1012.2 hPa10 kmENE (60°)9.3 km/hOvercast
9:30 PM2 °C-3 °C70 %1012.2 hPa10 kmNE (50°)11.1 km/hOvercast
10:00 PM2 °C-3 °C70 %1012.2 hPa10 kmNE (40°)13 km/hOvercast
10:30 PM2 °C-3 °C70 %1012.2 hPa10 kmNE (40°)14.8 km/hOvercast
11:00 PM2 °C-3 °C70 %1012.2 hPa10 kmNE (40°)11.1 km/hOvercast
11:30 PM2 °C-3 °C70 %1012.2 hPa10 kmNE (40°)11.1 km/hOvercast
Hourly data recorded from LFOH, located 0 kilometers away from Le Havre, France







STORIES FROM OUR PARTNERS